User: anonymous   Login
Location: Beuvrequen
(50.8014°N, 1.6652°E)
Time: 12:36:40
(UTC+00:00)
Language:

Lacrosse 4 Rocket - Orbit

View from above orbital plane
View from above orbital plane
View from above satellite
View from above satellite

Ground track
Ground track

The orbit data is extracted from the following two-line orbital elements,

1 26474U 00047B   22276.21345323  .00002900  00000-0  25342-3 0  9996
2 26474  67.9936 288.3922 0055617 351.0019   9.0121 14.97117089204659
Epoch (UTC): 03 October 2022 05:07:22
Eccentricity: 0.0055617
inclination: 67.9936°
perigee height: 537 km
apogee height: 614 km
right ascension of ascending node: 288.3922°
argument of perigee: 351.0019°
revolutions per day: 14.97117089
mean anomaly at epoch: 9.0121°
orbit number at epoch: 20465

The dashed part of the orbit path shows where the satellite is in the earth's shadow,  

DLR